Regional Weather Roundup
Issued by NWS

Home | Current Version | Previous Version | Text Only | Print | Product List | Glossary Off
Versions: 1 2 3 4 5 6 7 8 9 10 11 12 13 14 15 16 17 18 19 20 21 22 23 24 25 26 27 28 29 30 31 32 33 34 35 36 37 38 39 40 41 42 43 44 45 46 47 48 49 50

986
ASUS44 KJAN 241103
RWRMS

MISSISSIPPI HOURLY WEATHER ROUNDUP
NATIONAL WEATHER SERVICE JACKSON MS
600 AM CDT FRI OCT 24 2014

NOTE: "FAIR: INDICATES FEW OR NO CLOUDS BELOW 12,000 FEET WITH NO
SIGNIFICANT WEATHER AND/OR OBSTRUCTIONS TO VISIBILITY.

MSZ001>002-007>008-010>013-018>021-025>028-034>036-241200-
NORTHWEST MISSISSIPPI

CITY           SKY/WX    TMP DP  RH WIND       PRES   REMARKS
CLARKSDALE     FAIR      45  45 100 CALM      30.15S
CLEVELAND      FAIR      45  45 100 CALM      30.13S
GREENWOOD      FOG       44  43  96 CALM      30.14R VSB 3/4
GREENVILLE     CLEAR     47  46  97 N3        30.14R FOG
GRENADA          N/A    N/A N/A N/A MISG        N/A
OLIVE BRANCH   CLEAR     45  45 100 CALM      30.13F
OXFORD         FAIR      45  43  93 CALM      30.15R
TUNICA         FOG       43  43 100 CALM      30.14F VSB 3/4
$$

MSZ003>006-009-014>017-022>024-029>033-037>039-241200-
NORTHEAST MISSISSIPPI

CITY           SKY/WX    TMP DP  RH WIND       PRES   REMARKS
COLUMBUS AFB   CLOUDY    50  49  95 NW3       30.10S
CORINTH        FOG       46  45  93 CALM      30.12S VSB 3/4
GOLDN TRIANGLE CLEAR     50  45  81 NW7       30.10S
STARKVILLE     FAIR      50  46  87 CALM      30.11S
TUPELO         CLEAR     47  44  90 N5        30.11S
$$

MSZ040-058-241200-
CENTRAL MISSISSIPPI

CITY           SKY/WX    TMP DP  RH WIND       PRES   REMARKS
JACKSON INTL   CLEAR     43  42  97 CALM      30.12S
JACKSON HAWKNS CLEAR     46  44  93 NW5       30.12S
MERIDIAN KEY   PTCLDY    46  45  96 CALM      30.10R
MERIDIAN NAS   MOCLDY    49  47  93 CALM      30.10R
RAYMOND        FAIR      41  37  87 CALM      30.13R FOG
VICKSBURG      CLEAR     40  38  93 CALM      30.14S FOG
$$

MSZ059>079-241200-
SOUTH MISSISSIPPI

CITY           SKY/WX    TMP DP  RH WIND       PRES   REMARKS
BROOKHAVEN     FAIR      46  46 100 CALM      30.13R
COLUMBIA         N/A    N/A N/A N/A MISG        N/A
HATTIESBURG    CLEAR     47  46  97 CALM      30.10S
MCCOMB         CLEAR     48  45  89 N5        30.11R
NATCHEZ        CLOUDY    46  45  93 CALM      30.13S VSB 1/4
PINE BELT      CLEAR     45  39  81 CALM      30.11R
$$

MSZ080>082-241200-
COASTAL MISSISSIPPI

CITY           SKY/WX    TMP DP  RH WIND       PRES   REMARKS
BILOXI         MOCLDY    53  47  80 N1        30.08S
PASCAGOULA     PTCLDY    50  47  89 CALM      30.08R
GULFPORT       PTCLDY    52  47  83 CALM      30.08S
$$



USA.gov is the U.S. government's official web portal to all federal, state and local government web resources and services.